[[{"header":{"parameterUnit":"m.s-1","parameterCategory":1,"la1":30.2991,"la2":30.254,"lo1":-89.0895,"lo2":-89.0444,"dy":0.0017,"dx":0.0017,"nx":28,"ny":28,"refTime":"2025-02-05T09:00:00:Z","depth":0,"parameterNumber":2,"parameterNumberName":"U-component_of_WINDS"},"data":[0,0,0,0,0,0,0,0,0,0,0,0,0,0,0,0,0,0,0,0,0,0,0,0,0,0,0,0,0,0,0,0,0,0,0,0,0,0,0,0,0,0,0,0,0,0,0,0,0,0,0,0,0,0,0,0,0,0,-1.8537,-1.8537,0,-1.857,-1.857,-1.8571,-1.8555,-1.8554,-1.8553,-1.8553,-1.8586,-1.8588,-1.859,0,0,0,0,0,0,0,0,0,0,0,0,0,-1.8461,-1.8462,-1.8537,-1.8537,-1.8538,-1.857,-1.857,-1.8571,-1.8555,-1.8554,-1.8553,-1.8552,-1.8586,-1.8588,-1.859,0,0,0,0,0,0,0,0,0,0,0,0,0,-1.8494,-1.8463,-1.8537,-1.8534,-1.8534,-1.857,-1.857,-1.8571,-1.8555,-1.8554,-1.8553,-1.8552,-1.8585,-1.8588,-1.859,-1.8631,0,0,-1.8598,-1.8599,0,0,0,0,0,0,0,0,-1.8492,-1.8497,-1.8534,-1.8534,-1.8534,-1.8557,-1.8556,-1.8591,-1.8556,-1.8547,-1.8553,-1.8551,-1.8578,-1.8581,-1.859,-1.8633,-1.8634,-1.8598,-1.86,-1.8601,-1.8601,0,0,0,0,0,0,0,-1.849,-1.8495,-1.855,-1.8535,-1.8535,-1.8531,-1.8534,-1.8563,-1.8569,-1.8548,-1.8547,-1.8551,-1.8578,-1.8587,-1.859,-1.8635,-1.8598,-1.86,-1.8602,-1.8603,-1.8712,-1.8714,0,0,0,0,0,0,-1.8488,-1.8493,-1.8549,-1.8551,-1.851,-1.8533,-1.8537,-1.8551,-1.8569,-1.857,-1.8552,-1.855,-1.8584,-1.8587,-1.8592,-1.864,-1.8601,-1.8603,-1.8605,-1.8711,-1.8713,-1.8714,0,0,0,0,0,0,-1.8486,-1.8493,-1.8548,-1.8522,-1.8529,-1.8536,-1.8552,-1.8552,-1.8562,-1.8572,-1.8573,-1.8561,-1.8583,-1.8588,-1.8621,-1.8641,-1.8604,-1.8607,-1.8709,-1.8711,-1.8713,-1.8737,0,0,0,0,0,0,-1.8484,-1.8492,-1.8508,-1.8522,-1.853,-1.8577,-1.8553,-1.8554,-1.8566,-1.8564,-1.858,-1.8582,-1.8582,-1.8618,-1.8624,-1.8644,-1.8609,-1.8708,-1.871,-1.8713,-1.8735,-1.874,-1.8745,0,0,0,0,0,-1.8481,-1.8513,-1.8509,-1.8515,-1.855,-1.8578,-1.8582,-1.8582,-1.8568,-1.8584,-1.859,-1.8581,-1.8638,-1.8621,-1.8628,-1.8649,-1.8706,-1.871,-1.8713,-1.8733,-1.8739,-1.8744,0,0,0,0,0,0,-1.8501,-1.8515,-1.851,-1.8548,-1.8562,-1.8575,-1.8595,-1.8589,-1.8607,-1.8604,-1.8603,-1.8607,-1.8641,-1.8649,-1.863,-1.8689,-1.867,-1.8675,-1.8683,-1.8689,-1.8694,-1.8691,-1.8611,0,0,0,0,0,-1.8509,-1.8531,-1.8543,-1.8575,-1.8582,-1.8587,-1.86,-1.8598,-1.8613,-1.8619,-1.8627,-1.8642,-1.8663,-1.8677,-1.8697,-1.8736,-1.8739,-1.8754,-1.8759,-1.8763,-1.8767,-1.8788,-1.8795,-1.8724,-1.8724,-1.8724,0,0,-1.8527,-1.8538,-1.8552,-1.8579,-1.859,-1.8612,-1.8592,-1.8617,-1.8634,-1.8622,-1.8654,-1.8661,-1.8677,-1.8714,-1.873,-1.8721,-1.8787,-1.8767,-1.877,-1.8772,-1.8792,-1.8799,-1.8804,-1.8727,-1.8726,-1.8726,0,0,-1.8571,-1.8582,-1.861,-1.8621,-1.8637,-1.8641,-1.8647,-1.8662,-1.8666,-1.8698,-1.869,-1.871,-1.8746,-1.8758,-1.8769,-1.8818,-1.881,-1.8825,-1.8849,-1.887,-1.8875,-1.888,-1.8897,-1.8903,-1.8828,-1.8828,-1.8829,0,-1.8592,-1.8625,-1.8625,-1.865,-1.8662,-1.8653,-1.8681,-1.8692,-1.8714,-1.8723,-1.8712,-1.8757,-1.8768,-1.8807,-1.8819,-1.8828,-1.8835,-1.8822,-1.8875,-1.888,-1.8884,-1.89,-1.8907,-1.883,-1.883,-1.883,-1.883,0,-1.8649,-1.8672,-1.8693,-1.8714,-1.8729,-1.8755,-1.8759,-1.8774,-1.8772,-1.8776,-1.8809,-1.8821,-1.8843,-1.8852,-1.885,-1.8891,-1.8885,-1.8875,-1.8855,-1.8892,-1.8907,-1.8914,-1.8832,-1.8832,-1.8831,-1.8831,0,0,-1.8705,-1.8726,-1.8734,-1.8743,-1.8761,-1.8779,-1.8805,-1.8827,-1.8839,-1.8855,-1.8877,-1.8908,-1.8899,-1.8911,-1.8911,-1.8929,-1.8967,-1.8917,-1.8917,-1.8925,-1.9012,-1.9018,-1.9026,-1.8962,-1.8963,-1.8964,-1.901,0,-1.875,-1.8796,-1.8796,-1.8838,-1.8859,-1.8852,-1.8874,-1.8888,-1.8893,-1.8912,-1.8918,-1.894,-1.8926,-1.8933,-1.8951,-1.8958,-1.8984,-1.8955,-1.8982,-1.8983,-1.8977,-1.9034,-1.9041,-1.9083,-1.9016,-1.9017,-1.9018,0,-1.8808,-1.8825,-1.8869,-1.8884,-1.8893,-1.8913,-1.8933,-1.8952,-1.8967,-1.8969,-1.8983,-1.898,-1.9007,-1.8987,-1.9024,-1.9004,-1.9016,-1.9021,-1.9023,-1.9024,-1.9002,-1.9036,-1.9097,-1.9103,-1.9027,-1.9026,-1.9026,0,-1.8844,-1.8878,-1.8909,-1.8917,-1.8935,-1.895,-1.8958,-1.8972,-1.8985,-1.9002,-1.9011,-1.9031,-1.9042,-1.9059,-1.9061,-1.9047,-1.9098,-1.9079,-1.91,-1.91,-1.9111,-1.911,-1.9173,-1.912,-1.912,-1.9119,-1.9119,0,-1.8893,-1.892,-1.8925,-1.8944,-1.8974,-1.8975,-1.9004,-1.9012,-1.9024,-1.9044,-1.9039,-1.9058,-1.9061,-1.908,-1.9083,-1.9113,-1.9118,-1.9121,-1.9121,-1.912,-1.912,-1.9127,-1.9124,-1.9121,-1.9121,-1.912,-1.912,0,-1.8937,-1.8942,-1.8975,-1.8989,-1.8993,-1.9015,-1.9027,-1.9045,-1.905,-1.9075,-1.9081,-1.9089,-1.9112,-1.9116,-1.9144,-1.9145,-1.9181,-1.9178,-1.9175,-1.9175,-1.9196,-1.9193,-1.9265,-1.9275,-1.9216,-1.9216,-1.9217,0,-1.8968,-1.8988,-1.9005,-1.9018,-1.9027,-1.9048,-1.9061,-1.9063,-1.9077,-1.9095,-1.9111,-1.9134,-1.9151,-1.9189,-1.9197,-1.9218,-1.9215,-1.9239,-1.9218,-1.9217,-1.9214,-1.9213,-1.9214,-1.9242,-1.9243,-1.9244,-1.9244,0,-1.9022,-1.9023,-1.9042,-1.9062,-1.9077,-1.9093,-1.9108,-1.9119,-1.9123,-1.9139,-1.9162,-1.9176,-1.9204,-1.9226,-1.9247,-1.9256,-1.925,-1.9251,-1.9257,-1.9256,-1.9253,-1.9254,-1.9185,-1.9249,-1.9248,-1.9248,-1.9248,-1.9248,-1.9059,-1.9077,-1.9091,-1.9113,-1.9124,-1.9138,-1.9156,-1.9163,-1.9182,-1.9205,-1.9205,-1.923,-1.9245,-1.9272,-1.9282,-1.9302,-1.9295,-1.9304,-1.9306,-1.9308,-1.9309,-1.9251,-1.9306,-1.9306,-1.9306,-1.9306,-1.9306,0,-1.9112,-1.9121,-1.914,-1.9161,-1.9178,-1.9172,-1.9188,-1.9203,-1.9225,-1.9239,-1.9257,-1.9284,-1.9305,-1.9316,-1.9337,-1.9351,-1.9349,-1.9356,-1.9355,-1.9357,-1.9315,-1.9307,-1.9357,-1.9357,-1.9357,-1.9357,-1.9357,-1.9357,-1.9141,-1.9171,-1.9174,-1.9209,-1.9218,-1.9242,-1.9252,-1.9265,-1.9276,-1.9306,-1.9324,-1.933,-1.9343,-1.9365,-1.9385,-1.9387,-1.9395,-1.9403,-1.9404,-1.9365,-1.936,-1.9355,-1.9347,-1.9405,-1.9405,-1.9444,-1.9445,-1.9445]},{"header":{"parameterUnit":"m.s-1","parameterCategory":1,"la1":30.2991,"la2":30.254,"lo1":-89.0895,"lo2":-89.0444,"dy":0.0017,"dx":0.0017,"nx":28,"ny":28,"refTime":"2025-02-05T09:00:00:Z","depth":0,"parameterNumber":3,"parameterNumberName":"V-component_of_WINDS"},"data":[0,0,0,0,0,0,0,0,0,0,0,0,0,0,0,0,0,0,0,0,0,0,0,0,0,0,0,0,0,0,0,0,0,0,0,0,0,0,0,0,0,0,0,0,0,0,0,0,0,0,0,0,0,0,0,0,0,0,1.5028,1.5028,0,1.5065,1.5065,1.5066,1.5094,1.5094,1.5094,1.5095,1.5131,1.5132,1.5133,0,0,0,0,0,0,0,0,0,0,0,0,0,1.4983,1.4983,1.5028,1.5028,1.5029,1.5065,1.5065,1.5066,1.5094,1.5094,1.5094,1.5095,1.5131,1.5132,1.5133,0,0,0,0,0,0,0,0,0,0,0,0,0,1.5009,1.4983,1.5028,1.5047,1.5049,1.5065,1.5065,1.5066,1.5094,1.5094,1.5095,1.5095,1.5131,1.5132,1.5133,1.5131,0,0,1.5136,1.5137,0,0,0,0,0,0,0,0,1.5008,1.5011,1.5044,1.5046,1.5048,1.5075,1.5063,1.5088,1.5094,1.5077,1.5095,1.5095,1.5112,1.5115,1.5121,1.5133,1.5135,1.5136,1.5137,1.5137,1.5138,0,0,0,0,0,0,0,1.5006,1.5009,1.5042,1.5044,1.5047,1.5054,1.5059,1.5068,1.5092,1.5078,1.5081,1.5085,1.5113,1.512,1.5122,1.5135,1.5136,1.5137,1.5138,1.5138,1.5151,1.5151,0,0,0,0,0,0,1.5001,1.5008,1.5041,1.5044,1.5029,1.5055,1.506,1.5066,1.5092,1.5096,1.5084,1.5086,1.5118,1.5121,1.5123,1.5125,1.5137,1.5138,1.5139,1.5151,1.5151,1.515,0,0,0,0,0,0,1.5,1.5004,1.504,1.5026,1.5031,1.5055,1.5062,1.5067,1.5073,1.5096,1.5101,1.5086,1.5118,1.5122,1.513,1.5127,1.5139,1.514,1.5152,1.5151,1.5151,1.5127,0,0,0,0,0,0,1.4998,1.5003,1.5002,1.5026,1.5032,1.5046,1.5062,1.5067,1.5075,1.5077,1.5099,1.5103,1.5119,1.5128,1.5131,1.5128,1.5141,1.5152,1.5151,1.5151,1.5128,1.5126,1.5124,0,0,0,0,0,1.4997,1.4994,1.5002,1.5006,1.5032,1.5045,1.5049,1.5067,1.5074,1.5074,1.509,1.5102,1.5126,1.5129,1.5132,1.513,1.5152,1.5151,1.5151,1.5129,1.5126,1.5124,0,0,0,0,0,0,1.4968,1.4997,1.5007,1.5011,1.5026,1.505,1.505,1.5063,1.5075,1.5077,1.5099,1.5103,1.511,1.512,1.5122,1.5131,1.5141,1.5141,1.5124,1.5121,1.5119,1.5116,1.5142,0,0,0,0,0,1.4963,1.4971,1.4996,1.4997,1.5004,1.5026,1.5033,1.5046,1.5061,1.5067,1.5083,1.5098,1.5109,1.5115,1.5127,1.513,1.5136,1.513,1.5128,1.5126,1.5126,1.5131,1.5129,1.5148,1.5148,1.5148,0,0,1.4951,1.4968,1.4971,1.4992,1.5005,1.5014,1.5031,1.5039,1.5046,1.5068,1.5078,1.509,1.5108,1.5114,1.5117,1.5123,1.5122,1.5125,1.5124,1.5125,1.513,1.5128,1.5126,1.5148,1.5148,1.5148,0,0,1.4934,1.4947,1.4951,1.4964,1.4983,1.4998,1.4999,1.5022,1.5031,1.5041,1.5059,1.5067,1.5085,1.5098,1.5106,1.5097,1.511,1.51,1.5088,1.5093,1.5091,1.509,1.5088,1.5087,1.51,1.51,1.51,0,1.4917,1.4931,1.4951,1.4959,1.4968,1.499,1.4995,1.5006,1.5028,1.5034,1.504,1.5065,1.5078,1.5089,1.5087,1.5092,1.5095,1.5098,1.509,1.5089,1.5088,1.5086,1.5085,1.5098,1.5099,1.5099,1.5099,0,1.491,1.4919,1.492,1.4942,1.4951,1.4957,1.4979,1.4986,1.4999,1.5013,1.5024,1.5041,1.5057,1.506,1.5072,1.5073,1.5076,1.5086,1.5096,1.5085,1.5083,1.5083,1.5097,1.5097,1.5097,1.5098,0,0,1.4875,1.491,1.491,1.4921,1.4945,1.4953,1.496,1.4977,1.4983,1.4998,1.5005,1.5021,1.5031,1.5041,1.5055,1.5058,1.5052,1.5068,1.5068,1.5065,1.5055,1.5049,1.5047,1.506,1.506,1.506,1.5054,0,1.4863,1.4878,1.4898,1.4907,1.4917,1.4938,1.4945,1.4961,1.4975,1.4986,1.5001,1.5013,1.5024,1.503,1.5035,1.5051,1.505,1.5052,1.5068,1.5068,1.5064,1.5046,1.5039,1.5033,1.5054,1.5054,1.5054,0,1.4851,1.4866,1.4876,1.4901,1.4906,1.4912,1.493,1.4939,1.4958,1.4968,1.498,1.4996,1.5006,1.5015,1.503,1.5031,1.5038,1.5048,1.5048,1.5051,1.5061,1.5049,1.5031,1.503,1.5053,1.5053,1.5053,0,1.4826,1.4849,1.4859,1.4867,1.4896,1.49,1.4912,1.4931,1.4941,1.4956,1.4963,1.4979,1.4988,1.5,1.502,1.5025,1.5033,1.5043,1.5042,1.5042,1.5043,1.5043,1.5026,1.5047,1.5047,1.5047,1.5047,0,1.4811,1.4817,1.4848,1.4854,1.4862,1.4884,1.4891,1.4905,1.4922,1.4932,1.4951,1.496,1.4985,1.4996,1.5012,1.5022,1.5026,1.5035,1.5039,1.5034,1.5033,1.5039,1.5041,1.5047,1.5047,1.5047,1.5047,0,1.4785,1.4806,1.4818,1.4845,1.4853,1.4857,1.488,1.4887,1.4903,1.4915,1.4919,1.4944,1.4959,1.4979,1.5,1.5011,1.502,1.5026,1.5013,1.5016,1.5014,1.5014,1.5002,1.5002,1.5021,1.5021,1.5021,0,1.4775,1.478,1.4808,1.4816,1.4828,1.484,1.4851,1.4873,1.4883,1.4906,1.4911,1.4927,1.4942,1.4965,1.4985,1.5001,1.5008,1.5003,1.5011,1.5006,1.501,1.5009,1.5011,1.5001,1.5001,1.5,1.5,0,1.4754,1.4765,1.4779,1.4797,1.4809,1.4824,1.484,1.4845,1.4872,1.4882,1.4898,1.4909,1.4932,1.4948,1.4968,1.4981,1.4995,1.4998,1.4998,1.4993,1.4986,1.4991,1.5009,1.4998,1.4998,1.4998,1.4998,1.4998,1.4736,1.4743,1.4764,1.4779,1.4794,1.4809,1.4818,1.4835,1.4849,1.487,1.4882,1.4898,1.4918,1.4946,1.4959,1.4972,1.4977,1.4978,1.4978,1.4978,1.4977,1.4984,1.4975,1.4975,1.4975,1.4975,1.4976,0,1.4718,1.4733,1.4747,1.477,1.4782,1.4795,1.4814,1.4824,1.4838,1.4856,1.487,1.4889,1.4906,1.4928,1.4946,1.4952,1.496,1.4957,1.4957,1.496,1.497,1.4969,1.4951,1.4951,1.4951,1.4951,1.4951,1.4951,1.471,1.4722,1.4735,1.4755,1.477,1.4786,1.4796,1.4811,1.4825,1.4846,1.486,1.4875,1.4895,1.4915,1.4931,1.4937,1.4944,1.4939,1.4947,1.4956,1.4959,1.4961,1.4959,1.494,1.494,1.4935,1.4935,1.4935]}]]